Torna al catalogo

H-2A R/B

AttivoHEO
NORAD 41837·ROCKET BODY·🇯🇵 Japan

Lanciato Nov 2, 2016 da Tanegashima Space Center

Loading…

Prossimi Passaggi (prossime 24 ore)

TLE

AggiornatoSource: Space-Track

Epoca: Sep 14, 2026, 08:57 UTC

1 41837U 16064B   26257.37296355  .00019633  00000-0  10679-2 0  9999
2 41837  22.3416 159.6510 6296226 139.4984 290.3938  3.65784952101220

Traccia H-2A R/B in tempo reale con AllMySat

Download on the App Store